Regional Weather Roundup
Issued by NWS

Home | Current Version | Previous Version | Text Only | Print | Product List | Glossary Off
Versions: 1 2 3 4 5 6 7 8 9 10 11 12 13 14 15 16 17 18 19 20 21 22 23 24 25 26 27 28

000
ASUS45 KTFX 271510
RWRMT
MONTANA REGIONAL WEATHER ROUNDUP
NATIONAL WEATHER SERVICE GREAT FALLS MT
900 AM MDT TUE JUN 27 2017

NOTE: "FAIR" INDICATES FEW OR NO CLOUDS BELOW 12000 FEET WITH NO
SIGNIFICANT WEATHER AND/OR OBSTRUCTIONS TO VISIBILITY.

MTZ001>007-043-271600-
WEST OF THE DIVIDE

CITY           SKY/WX    TMP DP  RH WIND       PRES   REMARKS
KALISPELL      CLOUDY    63  60  90 CALM      29.82S
MISSOULA       PTSUNNY   62  57  83 E8        29.90S
BUTTE          CLOUDY    61  48  62 N3        29.97R
MULLAN PASS    PTSUNNY   52  44  74 VRB5      29.99R
ANACONDA         N/A     59  48  67 SW8       29.96R
DEER LODGE       N/A     55  54  94 NE7       29.95S
EUREKA           N/A     68  54  60 CALM      29.80R
HAMILTON         N/A     63  54  72 SW7       29.92S
$$

MTZ008-052>055-271600-
SOUTHWEST MONTANA

CITY           SKY/WX    TMP DP  RH WIND       PRES   REMARKS
BOZEMAN        PTSUNNY   62  54  74 E6        29.90F
DILLON         MOSUNNY   61  48  62 SW10      29.96R
W YELLOWSTONE  CLOUDY    54  43  66 N5        30.06F
ENNIS          SUNNY     59  46  63 SW18      29.99R
THREE FORKS      N/A     64  56  75 CALM      29.90S
$$

MTZ009-010-012-014-046-048-049-054-271600-
EAST SLOPES AND CENTRAL MONTANA

CITY           SKY/WX    TMP DP  RH WIND       PRES   REMARKS
CUT BANK       CLOUDY    65  50  58 N23G31    29.78R
GREAT FALLS    CLOUDY    71  49  45 SW14G24   29.76S
MALMSTROM AFB  MOSUNNY   71  50  47 SW23G29   29.76S
HELENA         PTSUNNY   68  52  56 W15G22    29.87S
CHOTEAU          N/A     63  50  63 SW12      29.80R
$$

MTZ011-013-016-021-045-047-050-051-271600-
NORTH CENTRAL MONTANA

CITY           SKY/WX    TMP DP  RH WIND       PRES   REMARKS
HAVRE          PTSUNNY   74  53  48 W13       29.66S
LEWISTOWN      CLOUDY    66  52  60 SW9       29.78S
N BAR RANCH    PTSUNNY   72  43  35 W21G31    29.79S
CHINOOK          N/A     72  54  53 W9        29.64R
FORT BENTON      N/A    N/A N/A N/A MISG      29.72S
$$

MTZ017>020-022>027-061-062-271600-
NORTHEAST MONTANA

CITY           SKY/WX    TMP DP  RH WIND       PRES   REMARKS
GLASGOW        CLOUDY    75  43  31 VRB5      29.59S
JORDAN           N/A     79  47  32 W12       29.64R
SIDNEY         SUNNY     72  46  39 S12       29.59F
WOLF POINT     SUNNY     77  43  29 CALM      29.57F
MALTA          MOSUNNY   72  52  49 SW13      29.61R
PLENTYWOOD       N/A     72  45  37 S12       29.60F
POPLAR           N/A     75  45  33 S5        29.59F
$$

MTZ028>42-056>058-271600-
SOUTHCENTRAL AND SOUTHEAST MONTANA

CITY           SKY/WX    TMP DP  RH WIND       PRES   REMARKS
BAKER          SUNNY     73  45  36 S5        29.68F
BILLINGS       CLOUDY    73  47  39 W9        29.77S
LIVINGSTON     CLOUDY    65  49  56 W9        29.89R
MILES CITY     MOSUNNY   76  41  28 W5        29.63S
BIG TIMBER     SUNNY     68  50  52 W22G29    29.88R
ROUNDUP          N/A     75  44  33 SW18      29.69R
$$

REGIONAL REPORTS...DAKOTAS

CITY           SKY/WX    TMP DP  RH WIND       PRES   REMARKS
WILLISTON      MOSUNNY   72  44  36 S12G22    29.61F
MINOT          PTSUNNY   68  44  42 S20G28    29.65F
DICKINSON      SUNNY     69  44  40 S17G26    29.66F
BEACH            N/A     70  45  40 S12       29.68F
CROSBY           N/A     68  45  42 S23G30    29.58F
TIOGA            N/A     66  45  45 S25G31    29.61F
WATFORD CITY     N/A     66  45  45 S12G17    29.64F
BISMARCK       CLOUDY    69  49  48 S24G31    29.74F
GRAND FORKS    CLOUDY    66  47  50 S16G24    29.86F
FARGO          PTSUNNY   69  45  41 S13       29.91F
BUFFALO SD       N/A     74  52  46 S13       29.62F
RAPID CITY     SUNNY     72  56  57 S35G45    29.71F
$$

REGIONAL REPORTS...WYOMING/IDAHO/WASHINGTON

CITY           SKY/WX    TMP DP  RH WIND       PRES   REMARKS
GILLETTE       MOSUNNY   76  46  34 NW9       29.79F
SHERIDAN       CLOUDY    71  53  52 N3        29.77F
BUFFALO WY     CLOUDY    73  41  31 W10       29.83F
CODY           CLOUDY    67  46  47 SE9       29.88F
YELLOWSTONE LA   N/A     52  42  69 W13G24    30.14R
IDAHO FALLS    MOSUNNY   67  50  54 N6        29.96F
SALMON         MOSUNNY   63  52  67 N5        29.95F
BOISE          MOSUNNY   71  50  47 VRB5      29.94R
SPOKANE        PTSUNNY   62  54  74 S12       29.88R
$$

REGIONAL REPORTS...ALBERTA

CITY           SKY/WX    TMP DP  RH WIND       PRES   REMARKS
EDMONTON       MOSUNNY   55  45  67 W15G24    29.67S
CALGARY        PTSUNNY   55  41  58 NW13G20   29.78S
LETHBRIDGE     PTSUNNY   59  46  63 N15       29.77S
MEDICINE HAT   LGT RAIN  63  55  77 NW13G20   29.67R
WATERTON GATE    N/A     61  48  63 NW5         N/A
$$

REGIONAL REPORTS...SASKATCHEWAN

CITY           SKY/WX    TMP DP  RH WIND       PRES   REMARKS
SWIFT CURRENT  SUNNY     70  52  52 W23G30    29.55R
REGINA         PTSUNNY   72  50  46 S14G22    29.53F
SASKATOON      PTSUNNY   72  55  56 SW14      29.43S
CYPRESS HILLS    N/A     59  48  67 NW10G20     N/A
VAL MARIE        N/A     73  48  40 W17G24      N/A
ROCKGLEN         N/A     77  46  33 W9          N/A
$$




USA.gov is the U.S. government's official web portal to all federal, state and local government web resources and services.